Simultaneous Nadir Overpasses (SNOs) Predictions

Prediction of SNOs between NOAA-20 and METOP-C Satellite Orbit:

Table of predicted SNOs for the next 14.0 days since TLE Epoch: 6/16/2022
Index Date (NOAA-20) Time (NOAA-20) Lat,Lon (NOAA-20) SZA (NOAA-20 ) Date (METOP-C) Time (METOP-C) Lat,Lon (METOP-C) SZA (METOP-C ) Distance(km) Time Diff (sec)
1 06/24/2022 23:47:52 73.45, 173.46 50.28 06/24/2022 23:48:59 73.39, 176.10 50.06 83.96 67
2 06/25/2022 00:38:35 -73.39, -19.09 129.79 06/25/2022 00:39:43 -73.34, -16.68 129.98 76.84 68
3 06/25/2022 01:29:16 73.16, 148.74 49.95 06/25/2022 01:30:26 73.12, 150.16 49.82 45.90 70
4 06/25/2022 02:19:59 -73.10, -43.81 130.11 06/25/2022 02:21:10 -73.07, -42.62 130.22 38.93 71
5 06/25/2022 03:10:40 72.86, 124.00 49.63 06/25/2022 03:11:53 72.84, 124.24 49.58 8.01 73
6 06/25/2022 04:01:23 -72.81, -68.56 130.43 06/25/2022 04:02:37 -72.80, -68.53 130.46 1.38 74
7 06/25/2022 04:52:08 72.77, 98.83 49.53 06/25/2022 04:53:16 72.77, 98.75 49.52 2.61 68
8 06/25/2022 05:42:52 -72.76, -93.85 130.48 06/25/2022 05:43:59 -72.78, -93.92 130.48 2.77 67
9 06/25/2022 06:33:38 72.78, 73.44 49.54 06/25/2022 06:34:37 72.80, 73.47 49.55 2.74 59
10 06/25/2022 07:24:22 -72.77,-119.23 130.47 06/25/2022 07:25:21 -72.76,-119.30 130.49 2.70 59
11 06/25/2022 08:15:08 72.78, 48.05 49.55 06/25/2022 08:15:59 72.78, 48.09 49.53 1.39 51
12 06/25/2022 09:05:52 -72.78,-144.62 130.46 06/25/2022 09:06:42 -72.79,-144.58 130.47 1.75 50
13 06/25/2022 09:56:37 72.74, 22.76 49.50 06/25/2022 09:57:21 72.76, 22.70 49.51 2.77 44
14 06/25/2022 10:47:22 -72.78,-170.01 130.45 06/25/2022 10:48:04 -72.76,-169.96 130.48 2.80 42
15 06/25/2022 11:38:07 72.75, -2.63 49.51 06/25/2022 11:38:43 72.74, -2.68 49.50 2.22 36
16 06/25/2022 12:28:51 -72.74, 164.70 130.50 06/25/2022 12:29:26 -72.74, 164.66 130.50 1.58 35
17 06/25/2022 13:19:37 72.75, -28.01 49.52 06/25/2022 13:20:04 72.77, -27.96 49.53 2.22 27
18 06/25/2022 14:10:20 -72.75, 139.31 130.49 06/25/2022 14:10:47 -72.72, 139.27 130.51 3.14 27
19 06/25/2022 15:01:06 72.76, -53.40 49.53 06/25/2022 15:01:25 72.74, -53.34 49.51 2.78 19
20 06/25/2022 15:51:50 -72.76, 113.92 130.48 06/25/2022 15:52:08 -72.75, 113.99 130.49 2.31 18
21 06/25/2022 16:42:35 72.72, -78.69 49.49 06/25/2022 16:42:47 72.72, -78.73 49.49 1.38 12
22 06/25/2022 17:33:19 -72.71, 88.64 130.52 06/25/2022 17:33:30 -72.73, 88.61 130.50 2.39 11
23 06/25/2022 18:24:05 72.73,-104.08 49.50 06/25/2022 18:24:09 72.70,-104.11 49.48 2.76 4
24 06/25/2022 19:14:49 -72.72, 63.25 130.51 06/25/2022 19:14:52 -72.71, 63.23 130.52 1.20 3
25 06/25/2022 20:05:35 72.73,-129.47 49.51 06/25/2022 20:05:30 72.73,-129.39 49.51 2.62 5
26 06/25/2022 20:56:19 -72.73, 37.86 130.50 06/25/2022 20:56:13 -72.74, 37.95 130.49 3.30 6
27 06/25/2022 21:47:04 72.69,-154.75 49.46 06/25/2022 21:46:52 72.71,-154.77 49.49 2.53 12
28 06/25/2022 22:37:49 -72.73, 12.47 130.49 06/25/2022 22:37:35 -72.72, 12.57 130.51 3.45 14
29 06/25/2022 23:28:34 72.70, 179.86 49.47 06/25/2022 23:28:14 72.69, 179.85 49.47 0.83 20
30 06/26/2022 00:19:18 -72.69, -12.81 130.54 06/26/2022 00:18:57 -72.70, -12.82 130.52 0.98 21
31 06/26/2022 01:10:04 72.70, 154.47 49.48 06/26/2022 01:09:35 72.72, 154.57 49.50 3.69 29
32 06/26/2022 02:00:48 -72.70, -38.20 130.53 06/26/2022 02:00:19 -72.68, -38.20 130.54 2.16 29
33 06/26/2022 02:51:34 72.71, 129.08 49.50 06/26/2022 02:50:57 72.70, 129.18 49.49 3.68 37
34 06/26/2022 03:42:17 -72.65, -63.49 130.57 06/26/2022 03:41:41 -72.66, -63.58 130.55 3.20 36
35 06/26/2022 04:33:03 72.67, 103.80 49.45 06/26/2022 04:32:19 72.68, 103.80 49.47 1.15 44
36 06/26/2022 05:23:47 -72.66, -88.88 130.56 06/26/2022 05:23:02 -72.69, -88.86 130.52 2.90 45
37 06/26/2022 06:14:33 72.67, 78.41 49.46 06/26/2022 06:13:41 72.66, 78.42 49.45 2.06 52
38 06/26/2022 07:05:17 -72.67,-114.26 130.55 06/26/2022 07:04:24 -72.67,-114.24 130.54 0.73 53
39 06/26/2022 07:56:02 72.63, 53.12 49.42 06/26/2022 07:55:03 72.64, 53.03 49.44 2.90 59
40 06/26/2022 08:46:46 -72.62,-139.55 130.59 06/26/2022 08:45:46 -72.64,-139.63 130.56 3.39 60
41 06/26/2022 09:37:32 72.64, 27.73 49.43 06/26/2022 09:36:24 72.67, 27.76 49.47 3.07 68
42 06/26/2022 10:28:16 -72.63,-164.94 130.58 06/26/2022 10:27:08 -72.62,-165.01 130.57 2.51 68
43 06/26/2022 11:19:01 72.59, 2.45 49.38 06/26/2022 11:17:47 72.59, 2.27 49.41 5.90 74
44 06/26/2022 12:09:45 -72.59, 169.78 130.63 06/26/2022 12:08:30 -72.60, 169.61 130.59 5.79 75
45 06/26/2022 13:00:25 72.30, -22.33 49.06 06/26/2022 12:59:14 72.32, -23.62 49.17 43.67 71
46 06/26/2022 13:51:09 -72.29, 145.00 130.95 06/26/2022 13:49:58 -72.28, 143.62 130.87 46.58 71
47 06/26/2022 14:41:49 72.00, -47.13 48.73 06/26/2022 14:40:42 71.99, -49.59 48.88 84.79 67
48 06/26/2022 15:32:33 -71.99, 120.20 131.27 06/26/2022 15:31:25 -72.00, 117.75 131.11 84.12 68



Historial Predications of SNOs between NOAA-20 and METOP-C
